Regional Weather Roundup
Issued by NWS Little Rock, AR

Home | Current Version | Previous Version | Graphics & Text | Print | Product List | Glossary On
Versions: 1 2 3 4 5 6 7 8 9 10 11 12 13 14 15 16 17 18 19 20 21 22 23 24 25 26 27 28 29 30 31 32 33 34 35 36 37 38 39 40 41 42 43 44 45 46 47 48 49 50
000
ASUS44 KLZK 210205
RWRLZK

WEATHER ROUNDUP FOR ARKANSAS
NATIONAL WEATHER SERVICE LITTLE ROCK AR
800 PM CST SAT DEC 20 2014

NOTE: "FAIR" INDICATES FEW OR NO CLOUDS BELOW 12,000 FEET WITH NO
SIGNIFICANT WEATHER AND/OR OBSTRUCTIONS TO VISIBILITY.

ARZ001-003-010-029-210300-
NORTHWEST ARKANSAS

CITY           SKY/WX    TMP DP  RH WIND       PRES   REMARKS
FAYETTEVILLE   CLOUDY    41  37  86 CALM      30.20R
FORT SMITH     CLOUDY    46  39  76 CALM      30.22R
HARRISON       CLOUDY    40  39  97 SE6       30.20R
BENTONVILLE    CLOUDY    43  34  70 CALM      30.20S
ROGERS         CLOUDY    41  34  76 S7        30.20R
SILOAM SPGS    CLOUDY    43  32  65 S5        30.20S
HIGHFILL       CLOUDY    42  36  79 S5        30.19R
SPRINGDALE     CLOUDY    41  36  81 CALM      30.21S
$$

ARZ004-005-016-210300-
NORTH CENTRAL ARKANSAS

CITY           SKY/WX    TMP DP  RH WIND       PRES   REMARKS
BATESVILLE     CLOUDY    43  36  75 CALM      30.25S
FLIPPIN        CLOUDY    41  36  81 CALM      30.21S
MTN HOME       CLOUDY    40  39  97 SE5       30.21R
$$

ARZ040-041-210300-
WEST CENTRAL ARKANSAS

CITY           SKY/WX    TMP DP  RH WIND       PRES   REMARKS
MENA           CLOUDY    46  43  87 CALM      30.20F
MOUNT IDA      CLOUDY    45  43  93 CALM      30.19R
$$

ARZ009-017-025-026-028-210300-
NORTHEAST ARKANSAS

CITY           SKY/WX    TMP DP  RH WIND       PRES   REMARKS
CORNING        CLOUDY    41  37  87 NE6       30.27S HAZE
JONESBORO      MOCLDY    36  34  92 N3        30.26S
NEWPORT        CLOUDY    39  38  97 NE3       30.27S
WALNUT RIDGE   CLOUDY    41  34  75 E3        30.25S
BLYTHEVILLE    CLEAR     36  33  89 NE5       30.27S
$$

ARZ022-023-033-042-044-210300-
CENTRAL ARKANSAS

CITY           SKY/WX    TMP DP  RH WIND       PRES   REMARKS
LITTLE ROCK    CLOUDY    44  36  73 NE3       30.25S
N LITTLE ROCK  CLOUDY    42  39  88 NE5       30.25S
SEARCY         CLOUDY    40  36  86 NE3       30.27R
HOT SPRINGS    CLOUDY    47  40  76 E5        30.23R
RUSSELLVILLE   CLOUDY    44  41  89 CALM      30.22S
CLINTON        CLOUDY    45  39  81 CALM      30.26R HAZE
$$

ARZ036-210300-
EAST ARKANSAS

CITY           SKY/WX    TMP DP  RH WIND       PRES   REMARKS
WEST MEMPHIS   CLOUDY    43  38  82 N6        30.24R
$$

ARZ050-053-066-070-073-210300-
SOUTHWEST ARKANSAS

CITY           SKY/WX    TMP DP  RH WIND       PRES   REMARKS
ARKADELPHIA    FAIR      39  39 100 CALM      30.24R
CAMDEN         CLEAR     41  37  87 MISG      30.23R
TEXARKANA      PTCLDY    43  40  89 CALM      30.22R
EL DORADO      MOCLDY    42  40  92 CALM      30.22R
DE QUEEN       CLOUDY    47  44  90 E5        30.21R
$$

ARZ056-057-069-210300-
SOUTHEAST ARKANSAS

CITY           SKY/WX    TMP DP  RH WIND       PRES   REMARKS
PINE BLUFF     CLEAR     40  35  83 N5        30.24R
STUTTGART      CLEAR     39  34  81 N6        30.25S
MONTICELLO     CLEAR     42  37  82 N3        30.23R

$$




USA.gov is the U.S. government's official web portal to all federal, state and local government web resources and services.